BEIDOU-2 G7

Last updated on Sun Apr 12 2026 00:02:54 GMT+0000 (Coordinated Universal Time)

1 41586U 16037A 26101.54261748 -.00000351 00000+0 00000+0 0 9996 2 41586 1.5544 68.6266 0007759 351.7009 85.3365 1.00274433 6226
UTC large
Height (km)
Speed (km/s)
/
Latitude / Longitude
Inclination (degrees)
Orbital Period (minutes)
Azimuth
Elevation
Range (km)
Doppler Factor

Next 0 passes for location: London (51.5072 / 0.1276)

Sorry there are no passes over London.
BEIDOU-2 G7